| time (UTC) | temp F | wind direction | speed MPH | gust MPH | rain 1hr in | rain 24hr in | rain mn in | humidity % | barometer mb |
| 20260510182328 | 80 | 113 | 2.0 | 4.0 | 0.00 | 0.00 | 0.13 | 89 | 1016.0 |
| 20260510181827 | 80 | 114 | 3.0 | 7.0 | 0.00 | 0.00 | 0.13 | 90 | 1016.0 |
| 20260510181327 | 80 | 114 | 2.0 | 4.0 | 0.00 | 0.00 | 0.13 | 89 | 1015.9 |
| 20260510180829 | 80 | 144 | 2.0 | 5.0 | 0.00 | 0.00 | 0.13 | 90 | 1015.8 |
| 20260510180328 | 79 | 107 | 2.0 | 4.0 | 0.00 | 0.00 | 0.12 | 90 | 1015.8 |
| 20260510175828 | 78 | 100 | 3.0 | 7.0 | 0.00 | 0.00 | 0.12 | 91 | 1016.0 |
| 20260510175328 | 76 | 121 | 3.0 | 5.0 | 0.00 | 0.00 | 0.12 | 91 | 1016.0 |
| 20260510174828 | 77 | 273 | 1.0 | 3.0 | 0.56 | 0.00 | 0.12 | 89 | 1016.2 |
| 20260510174330 | 78 | 294 | 4.0 | 7.0 | 0.92 | 0.00 | 0.09 | 88 | 1016.4 |
| 20260510173827 | 80 | 302 | 4.0 | 5.0 | 0.26 | 0.00 | 0.05 | 86 | 1016.3 |
| 20260510173327 | 82 | 280 | 5.0 | 8.0 | 0.24 | 0.00 | 0.02 | 79 | 1016.3 |
| 20260510172827 | 84 | 280 | 4.0 | 5.0 | 0.03 | 0.00 | 0.00 | 72 | 1016.3 |
| 20260510172327 | 85 | 303 | 3.0 | 5.0 | 0.01 | 0.00 | 0.00 | 61 | 1016.2 |
| 20260510171827 | 85 | 293 | 3.0 | 4.0 | 0.00 | 0.00 | 0.00 | 61 | 1016.1 |
| 20260510171327 | 85 | 265 | 2.0 | 4.0 | 0.00 | 0.00 | 0.00 | 61 | 1016.0 |
| 20260510170827 | 85 | 312 | 2.0 | 4.0 | 0.00 | 0.00 | 0.00 | 59 | 1016.1 |
| 20260510170327 | 86 | 303 | 2.0 | 3.0 | 0.00 | 0.00 | 0.00 | 57 | 1016.2 |
| 20260510165827 | 86 | 307 | 1.0 | 2.0 | 0.00 | 0.00 | 0.00 | 62 | 1016.2 |
| 20260510165327 | 86 | 284 | 3.0 | 4.0 | 0.00 | 0.00 | 0.00 | 63 | 1016.3 |
| 20260510164827 | 86 | 303 | 2.0 | 4.0 | 0.00 | 0.00 | 0.00 | 62 | 1016.4 |
| 20260510164327 | 85 | 0 | 0.0 | 0.0 | 0.00 | 0.00 | 0.00 | 65 | 1016.4 |
| 20260510163828 | 85 | 250 | 2.0 | 3.0 | 0.00 | 0.00 | 0.00 | 66 | 1016.6 |
| 20260510163327 | 84 | 313 | 1.0 | 2.0 | 0.00 | 0.00 | 0.00 | 65 | 1016.6 |
| 20260510162827 | 84 | 288 | 2.0 | 3.0 | 0.00 | 0.00 | 0.00 | 68 | 1016.6 |
| 20260510162329 | 84 | 328 | 2.0 | 3.0 | 0.00 | 0.00 | 0.00 | 66 | 1016.6 |
| 20260510161827 | 84 | 268 | 4.0 | 6.0 | 0.00 | 0.00 | 0.00 | 66 | 1016.7 |
| 20260510161327 | 84 | 281 | 1.0 | 2.0 | 0.00 | 0.00 | 0.00 | 66 | 1016.8 |
| 20260510160827 | 84 | 163 | 2.0 | 4.0 | 0.00 | 0.00 | 0.00 | 66 | 1016.8 |
| 20260510160327 | 83 | 178 | 2.0 | 6.0 | 0.00 | 0.00 | 0.00 | 70 | 1016.8 |
| 20260510155828 | 83 | 260 | 2.0 | 4.0 | 0.00 | 0.00 | 0.00 | 69 | 1016.8 |
| 20260510155327 | 83 | 312 | 2.0 | 3.0 | 0.00 | 0.00 | 0.00 | 69 | 1016.8 |
| 20260510154828 | 84 | 302 | 4.0 | 6.0 | 0.00 | 0.00 | 0.00 | 69 | 1016.8 |
| 20260510154327 | 84 | 239 | 4.0 | 5.0 | 0.00 | 0.00 | 0.00 | 69 | 1016.8 |
| 20260510153827 | 84 | 307 | 1.0 | 2.0 | 0.00 | 0.00 | 0.00 | 68 | 1016.9 |
| 20260510153327 | 84 | 211 | 1.0 | 2.0 | 0.00 | 0.00 | 0.00 | 69 | 1016.8 |
| 20260510152827 | 83 | 216 | 1.0 | 2.0 | 0.00 | 0.00 | 0.00 | 71 | 1016.8 |
| 20260510152327 | 83 | 281 | 2.0 | 3.0 | 0.00 | 0.00 | 0.00 | 71 | 1016.8 |
| 20260510151827 | 84 | 291 | 2.0 | 4.0 | 0.00 | 0.00 | 0.00 | 70 | 1016.7 |
| 20260510151328 | 83 | 294 | 2.0 | 4.0 | 0.00 | 0.00 | 0.00 | 72 | 1016.8 |
| 20260510150828 | 83 | 173 | 3.0 | 6.0 | 0.00 | 0.00 | 0.00 | 69 | 1016.7 |
| 20260510150327 | 83 | 285 | 2.0 | 2.0 | 0.00 | 0.00 | 0.00 | 71 | 1016.7 |
| 20260510145827 | 83 | 265 | 2.0 | 4.0 | 0.00 | 0.00 | 0.00 | 70 | 1016.6 |
| 20260510145327 | 83 | 272 | 1.0 | 2.0 | 0.00 | 0.00 | 0.00 | 71 | 1016.6 |
| 20260510144827 | 82 | 274 | 2.0 | 3.0 | 0.00 | 0.00 | 0.00 | 72 | 1016.6 |
| 20260510144328 | 82 | 211 | 2.0 | 4.0 | 0.00 | 0.00 | 0.00 | 73 | 1016.6 |
| 20260510143828 | 82 | 284 | 3.0 | 4.0 | 0.00 | 0.00 | 0.00 | 74 | 1016.6 |
| 20260510143328 | 82 | 290 | 4.0 | 7.0 | 0.00 | 0.00 | 0.00 | 74 | 1016.6 |
| 20260510142827 | 82 | 264 | 1.0 | 2.0 | 0.00 | 0.00 | 0.00 | 75 | 1016.6 |
| 20260510142329 | 81 | 182 | 3.0 | 7.0 | 0.00 | 0.00 | 0.00 | 73 | 1016.6 |
| 20260510141828 | 81 | 191 | 2.0 | 4.0 | 0.00 | 0.00 | 0.00 | 76 | 1016.6 |
| 20260510141327 | 80 | 225 | 2.0 | 5.0 | 0.00 | 0.00 | 0.00 | 79 | 1016.5 |
| 20260510140827 | 80 | 274 | 2.0 | 4.0 | 0.00 | 0.00 | 0.00 | 81 | 1016.4 |
| 20260510140328 | 80 | 287 | 3.0 | 4.0 | 0.00 | 0.00 | 0.00 | 83 | 1016.3 |
| 20260510135828 | 79 | 286 | 2.0 | 3.0 | 0.00 | 0.00 | 0.00 | 86 | 1016.2 |
| 20260510135328 | 79 | 176 | 2.0 | 4.0 | 0.00 | 0.00 | 0.00 | 87 | 1016.2 |
| 20260510134828 | 78 | 187 | 3.0 | 4.0 | 0.00 | 0.00 | 0.00 | 88 | 1016.2 |
| 20260510134328 | 78 | 182 | 2.0 | 4.0 | 0.00 | 0.00 | 0.00 | 90 | 1016.2 |
| 20260510133828 | 77 | 250 | 0.0 | 2.0 | 0.00 | 0.00 | 0.00 | 91 | 1016.2 |
| 20260510133327 | 77 | 201 | 3.0 | 4.0 | 0.00 | 0.00 | 0.00 | 92 | 1016.2 |
| 20260510132827 | 77 | 225 | 1.0 | 4.0 | 0.00 | 0.00 | 0.00 | 94 | 1016.2 |
| 20260510132327 | 77 | 265 | 2.0 | 4.0 | 0.00 | 0.00 | 0.00 | 95 | 1016.1 |
| 20260510131830 | 76 | 287 | 3.0 | 4.0 | 0.00 | 0.00 | 0.00 | 96 | 1016.1 |
| 20260510131327 | 76 | 270 | 1.0 | 2.0 | 0.00 | 0.00 | 0.00 | 97 | 1016.1 |
| 20260510130828 | 76 | 209 | 2.0 | 3.0 | 0.00 | 0.00 | 0.00 | 97 | 1016.0 |
| 20260510130330 | 76 | 0 | 0.0 | 0.0 | 0.00 | 0.00 | 0.00 | 98 | 1016.0 |
| 20260510125827 | 76 | 240 | 1.0 | 2.0 | 0.00 | 0.00 | 0.00 | 99 | 1016.0 |
| 20260510125328 | 75 | 238 | 0.0 | 0.0 | 0.00 | 0.00 | 0.00 | 99 | 1015.9 |
| 20260510124827 | 75 | 283 | 2.0 | 3.0 | 0.00 | 0.00 | 0.00 | 99 | 1016.0 |
| 20260510124327 | 75 | 281 | 1.0 | 2.0 | 0.00 | 0.00 | 0.00 | 100 | 1015.9 |
| 20260510123827 | 75 | 300 | 0.0 | 0.0 | 0.00 | 0.00 | 0.00 | 100 | 1015.9 |
| 20260510123327 | 74 | 132 | 0.0 | 1.0 | 0.00 | 0.00 | 0.00 | 100 | 1015.7 |
| 20260510122827 | 74 | 137 | 2.0 | 3.0 | 0.00 | 0.00 | 0.00 | 99 | 1015.7 |
| 20260510122327 | 74 | 147 | 1.0 | 2.0 | 0.00 | 0.00 | 0.00 | 100 | 1015.6 |
| 20260510121827 | 74 | 278 | 1.0 | 2.0 | 0.00 | 0.00 | 0.00 | 100 | 1015.6 |
| 20260510121327 | 74 | 131 | 1.0 | 2.0 | 0.00 | 0.00 | 0.00 | 100 | 1015.4 |
| 20260510120827 | 73 | 253 | 0.0 | 0.0 | 0.00 | 0.00 | 0.00 | 100 | 1015.4 |
| 20260510120327 | 73 | 240 | 0.0 | 1.0 | 0.00 | 0.00 | 0.00 | 100 | 1015.3 |
| 20260510115827 | 73 | 0 | 0.0 | 0.0 | 0.00 | 0.00 | 0.00 | 100 | 1015.3 |
| 20260510115329 | 73 | 266 | 0.0 | 0.0 | 0.00 | 0.00 | 0.00 | 100 | 1015.2 |
| 20260510114827 | 73 | 232 | 0.0 | 1.0 | 0.00 | 0.00 | 0.00 | 100 | 1015.2 |
| 20260510114327 | 73 | 0 | 0.0 | 0.0 | 0.00 | 0.00 | 0.00 | 100 | 1015.1 |
| 20260510113827 | 73 | 220 | 0.0 | 0.0 | 0.00 | 0.00 | 0.00 | 100 | 1015.1 |
| 20260510113327 | 73 | 163 | 1.0 | 2.0 | 0.00 | 0.00 | 0.00 | 100 | 1015.0 |
| 20260510112828 | 73 | 137 | 0.0 | 1.0 | 0.00 | 0.00 | 0.00 | 100 | 1014.9 |
| 20260510112327 | 73 | 143 | 1.0 | 2.0 | 0.00 | 0.00 | 0.00 | 100 | 1014.8 |
| 20260510111827 | 73 | 289 | 0.0 | 0.0 | 0.00 | 0.00 | 0.00 | 100 | 1014.8 |
| 20260510111327 | 73 | 278 | 1.0 | 2.0 | 0.00 | 0.00 | 0.00 | 99 | 1014.8 |
| 20260510110827 | 73 | 200 | 0.0 | 1.0 | 0.00 | 0.00 | 0.00 | 100 | 1014.8 |
| 20260510110327 | 73 | 0 | 0.0 | 0.0 | 0.00 | 0.00 | 0.00 | 99 | 1014.7 |
| 20260510105827 | 73 | 0 | 0.0 | 0.0 | 0.00 | 0.00 | 0.00 | 100 | 1014.7 |
| 20260510105327 | 73 | 231 | 0.0 | 1.0 | 0.00 | 0.00 | 0.00 | 99 | 1014.6 |
| 20260510104827 | 73 | 162 | 0.0 | 0.0 | 0.00 | 0.00 | 0.00 | 99 | 1014.5 |
| 20260510104327 | 73 | 0 | 0.0 | 0.0 | 0.00 | 0.00 | 0.00 | 99 | 1014.4 |
| 20260510103828 | 73 | 0 | 0.0 | 0.0 | 0.00 | 0.00 | 0.00 | 99 | 1014.3 |
| 20260510103328 | 73 | 255 | 0.0 | 1.0 | 0.00 | 0.00 | 0.00 | 99 | 1014.2 |
| 20260510102827 | 73 | 0 | 0.0 | 0.0 | 0.00 | 0.00 | 0.00 | 99 | 1014.2 |
| 20260510102327 | 73 | 180 | 0.0 | 1.0 | 0.00 | 0.00 | 0.00 | 99 | 1014.1 |
| 20260510101827 | 73 | 0 | 0.0 | 0.0 | 0.00 | 0.00 | 0.00 | 99 | 1014.0 |
| 20260510101327 | 73 | 236 | 2.0 | 2.0 | 0.00 | 0.00 | 0.00 | 99 | 1014.0 |
| 20260510100828 | 73 | 315 | 0.0 | 0.0 | 0.00 | 0.00 | 0.00 | 99 | 1013.9 |
| 20260510100327 | 73 | 265 | 0.0 | 1.0 | 0.00 | 0.00 | 0.00 | 99 | 1013.9 |
| 20260510095827 | 73 | 286 | 0.0 | 0.0 | 0.00 | 0.00 | 0.00 | 99 | 1013.8 |
| 20260510095328 | 73 | 312 | 0.0 | 1.0 | 0.00 | 0.00 | 0.00 | 99 | 1013.7 |
| 20260510094827 | 73 | 184 | 0.0 | 1.0 | 0.00 | 0.00 | 0.00 | 99 | 1013.6 |
| 20260510094327 | 73 | 163 | 1.0 | 2.0 | 0.00 | 0.00 | 0.00 | 99 | 1013.6 |
| 20260510093827 | 73 | 163 | 1.0 | 2.0 | 0.00 | 0.00 | 0.00 | 99 | 1013.6 |
| 20260510093328 | 73 | 170 | 2.0 | 3.0 | 0.00 | 0.00 | 0.00 | 99 | 1013.5 |
| 20260510092827 | 73 | 133 | 1.0 | 2.0 | 0.00 | 0.00 | 0.00 | 99 | 1013.6 |
| 20260510092327 | 74 | 158 | 1.0 | 2.0 | 0.00 | 0.00 | 0.00 | 99 | 1013.6 |
| 20260510091827 | 74 | 215 | 0.0 | 1.0 | 0.00 | 0.00 | 0.00 | 99 | 1013.6 |
| 20260510091329 | 74 | 253 | 0.0 | 1.0 | 0.00 | 0.00 | 0.00 | 99 | 1013.6 |
| 20260510090827 | 74 | 279 | 0.0 | 2.0 | 0.00 | 0.00 | 0.00 | 99 | 1013.5 |
| 20260510090327 | 74 | 230 | 0.0 | 1.0 | 0.00 | 0.00 | 0.00 | 99 | 1013.4 |
| 20260510085827 | 74 | 184 | 1.0 | 2.0 | 0.00 | 0.00 | 0.00 | 99 | 1013.4 |
| 20260510085327 | 74 | 158 | 1.0 | 2.0 | 0.00 | 0.00 | 0.00 | 99 | 1013.3 |
| 20260510084828 | 74 | 3 | 1.0 | 3.0 | 0.00 | 0.00 | 0.00 | 99 | 1013.3 |
| 20260510084327 | 74 | 196 | 1.0 | 2.0 | 0.00 | 0.00 | 0.00 | 99 | 1013.3 |
| 20260510083827 | 74 | 172 | 2.0 | 3.0 | 0.00 | 0.00 | 0.00 | 99 | 1013.2 |
| 20260510083327 | 74 | 177 | 1.0 | 2.0 | 0.00 | 0.00 | 0.00 | 99 | 1013.2 |
| 20260510082827 | 74 | 165 | 2.0 | 3.0 | 0.00 | 0.00 | 0.00 | 99 | 1013.1 |
| 20260510082327 | 74 | 168 | 3.0 | 4.0 | 0.00 | 0.00 | 0.00 | 99 | 1013.1 |
| 20260510081828 | 74 | 153 | 3.0 | 4.0 | 0.00 | 0.00 | 0.00 | 99 | 1013.2 |
| 20260510081327 | 74 | 160 | 2.0 | 3.0 | 0.00 | 0.00 | 0.00 | 99 | 1013.2 |
| 20260510080827 | 74 | 141 | 0.0 | 1.0 | 0.00 | 0.00 | 0.00 | 99 | 1013.3 |
| 20260510080328 | 74 | 164 | 1.0 | 2.0 | 0.00 | 0.00 | 0.00 | 99 | 1013.4 |
| 20260510075827 | 74 | 173 | 1.0 | 2.0 | 0.00 | 0.00 | 0.00 | 99 | 1013.4 |
| 20260510075327 | 74 | 152 | 1.0 | 2.0 | 0.00 | 0.00 | 0.00 | 99 | 1013.3 |
| 20260510074827 | 74 | 177 | 1.0 | 2.0 | 0.00 | 0.00 | 0.00 | 99 | 1013.3 |
| 20260510074327 | 74 | 162 | 1.0 | 2.0 | 0.00 | 0.00 | 0.00 | 99 | 1013.3 |
| 20260510073827 | 74 | 188 | 1.0 | 2.0 | 0.00 | 0.00 | 0.00 | 99 | 1013.4 |
| 20260510073328 | 74 | 185 | 2.0 | 3.0 | 0.00 | 0.00 | 0.00 | 99 | 1013.3 |
| 20260510072827 | 74 | 150 | 1.0 | 2.0 | 0.00 | 0.00 | 0.00 | 99 | 1013.3 |
| 20260510072327 | 74 | 169 | 2.0 | 3.0 | 0.00 | 0.00 | 0.00 | 99 | 1013.3 |
| 20260510071827 | 74 | 167 | 3.0 | 4.0 | 0.00 | 0.00 | 0.00 | 99 | 1013.3 |
| 20260510071327 | 74 | 145 | 2.0 | 3.0 | 0.00 | 0.00 | 0.00 | 99 | 1013.4 |
| 20260510070827 | 74 | 161 | 2.0 | 3.0 | 0.00 | 0.00 | 0.00 | 99 | 1013.5 |
| 20260510070327 | 74 | 166 | 2.0 | 2.0 | 0.00 | 0.00 | 0.00 | 98 | 1013.6 |
| 20260510065827 | 74 | 172 | 1.0 | 2.0 | 0.00 | 0.00 | 0.00 | 98 | 1013.6 |
| 20260510065327 | 74 | 160 | 1.0 | 2.0 | 0.00 | 0.00 | 0.00 | 98 | 1013.7 |
| 20260510064827 | 74 | 134 | 1.0 | 2.0 | 0.00 | 0.00 | 0.00 | 98 | 1013.8 |
| 20260510064327 | 74 | 263 | 1.0 | 2.0 | 0.00 | 0.00 | 0.00 | 98 | 1013.9 |
| 20260510063827 | 74 | 240 | 0.0 | 1.0 | 0.00 | 0.00 | 0.00 | 98 | 1013.9 |
| 20260510063327 | 74 | 192 | 1.0 | 2.0 | 0.00 | 0.00 | 0.00 | 98 | 1013.9 |
| 20260510062828 | 74 | 72 | 0.0 | 1.0 | 0.00 | 0.00 | 0.00 | 98 | 1013.9 |
| 20260510062327 | 74 | 283 | 1.0 | 1.0 | 0.00 | 0.00 | 0.00 | 98 | 1014.0 |
| 20260510061828 | 74 | 204 | 0.0 | 2.0 | 0.00 | 0.00 | 0.00 | 98 | 1014.1 |
| 20260510061327 | 74 | 326 | 0.0 | 1.0 | 0.00 | 0.00 | 0.00 | 98 | 1014.2 |
| 20260510060827 | 74 | 226 | 1.0 | 2.0 | 0.00 | 0.00 | 0.00 | 98 | 1014.3 |
| 20260510060327 | 74 | 111 | 1.0 | 1.0 | 0.00 | 0.00 | 0.00 | 98 | 1014.3 |
| 20260510055827 | 74 | 128 | 0.0 | 2.0 | 0.00 | 0.00 | 0.00 | 98 | 1014.3 |
| 20260510055328 | 74 | 165 | 0.0 | 1.0 | 0.00 | 0.00 | 0.00 | 98 | 1014.4 |
| 20260510054827 | 74 | 221 | 1.0 | 4.0 | 0.00 | 0.00 | 0.00 | 98 | 1014.4 |
| 20260510054328 | 74 | 328 | 0.0 | 1.0 | 0.00 | 0.00 | 0.00 | 98 | 1014.5 |
| 20260510053827 | 74 | 183 | 0.0 | 1.0 | 0.00 | 0.00 | 0.00 | 98 | 1014.5 |
| 20260510053327 | 74 | 126 | 1.0 | 2.0 | 0.00 | 0.00 | 0.00 | 98 | 1014.6 |
| 20260510052827 | 74 | 93 | 0.0 | 1.0 | 0.00 | 0.00 | 0.00 | 98 | 1014.6 |
| 20260510052327 | 74 | 244 | 1.0 | 2.0 | 0.00 | 0.00 | 0.00 | 98 | 1014.7 |
| 20260510051827 | 74 | 20 | 0.0 | 1.0 | 0.00 | 0.00 | 0.00 | 98 | 1014.7 |
| 20260510051327 | 74 | 291 | 0.0 | 1.0 | 0.00 | 0.00 | 0.00 | 98 | 1014.8 |
| 20260510050827 | 74 | 314 | 1.0 | 2.0 | 0.00 | 0.00 | 0.00 | 98 | 1014.9 |
| 20260510050327 | 74 | 225 | 0.0 | 2.0 | 0.00 | 0.00 | 0.00 | 98 | 1014.9 |
| 20260510045828 | 74 | 259 | 0.0 | 1.0 | 0.00 | 0.00 | 0.00 | 98 | 1014.9 |
| 20260510045327 | 74 | 282 | 0.0 | 1.0 | 0.00 | 0.00 | 0.00 | 98 | 1014.9 |
| 20260510044828 | 74 | 255 | 0.0 | 2.0 | 0.00 | 0.00 | 0.00 | 97 | 1014.9 |
| 20260510044327 | 74 | 170 | 1.0 | 3.0 | 0.00 | 0.00 | 0.00 | 98 | 1014.9 |
| 20260510043827 | 74 | 149 | 2.0 | 3.0 | 0.00 | 0.00 | 0.00 | 98 | 1014.8 |
| 20260510043328 | 74 | 193 | 2.0 | 2.0 | 0.00 | 0.00 | 0.00 | 98 | 1014.9 |
| 20260510042827 | 74 | 269 | 0.0 | 1.0 | 0.00 | 0.00 | 0.00 | 97 | 1015.0 |
| 20260510042327 | 74 | 165 | 0.0 | 1.0 | 0.00 | 0.00 | 0.00 | 97 | 1014.9 |
| 20260510041827 | 74 | 150 | 1.0 | 2.0 | 0.00 | 0.00 | 0.00 | 97 | 1015.0 |
| 20260510041327 | 74 | 171 | 1.0 | 2.0 | 0.00 | 0.00 | 0.00 | 97 | 1015.0 |
| 20260510040827 | 74 | 128 | 1.0 | 2.0 | 0.00 | 0.00 | 0.00 | 97 | 1015.0 |
| 20260510040327 | 74 | 119 | 1.0 | 1.0 | 0.00 | 0.00 | 0.00 | 97 | 1015.0 |
| 20260510035827 | 74 | 145 | 1.0 | 2.0 | 0.00 | 0.00 | 0.20 | 98 | 1015.1 |
| 20260510035328 | 74 | 343 | 0.0 | 1.0 | 0.00 | 0.00 | 0.20 | 97 | 1015.1 |
| 20260510034827 | 74 | 125 | 1.0 | 2.0 | 0.00 | 0.00 | 0.20 | 97 | 1015.0 |
| 20260510034328 | 74 | 51 | 0.0 | 1.0 | 0.00 | 0.00 | 0.20 | 97 | 1015.0 |
| 20260510033827 | 74 | 108 | 0.0 | 1.0 | 0.00 | 0.00 | 0.20 | 97 | 1015.0 |
| 20260510033327 | 74 | 119 | 1.0 | 1.0 | 0.00 | 0.00 | 0.20 | 97 | 1015.0 |
| 20260510032827 | 74 | 86 | 0.0 | 1.0 | 0.00 | 0.00 | 0.20 | 98 | 1014.9 |
| 20260510032328 | 74 | 140 | 1.0 | 2.0 | 0.00 | 0.00 | 0.20 | 98 | 1015.0 |
| 20260510031828 | 74 | 318 | 0.0 | 1.0 | 0.00 | 0.00 | 0.20 | 97 | 1015.0 |
| 20260510031327 | 74 | 342 | 0.0 | 1.0 | 0.00 | 0.00 | 0.20 | 97 | 1015.0 |
| 20260510030828 | 74 | 66 | 0.0 | 1.0 | 0.00 | 0.00 | 0.20 | 97 | 1015.0 |
| 20260510030327 | 74 | 117 | 0.0 | 2.0 | 0.00 | 0.00 | 0.20 | 97 | 1015.0 |
| 20260510025827 | 74 | 124 | 0.0 | 2.0 | 0.00 | 0.00 | 0.20 | 97 | 1015.0 |
| 20260510025328 | 74 | 104 | 1.0 | 2.0 | 0.00 | 0.00 | 0.20 | 97 | 1014.9 |
| 20260510024827 | 74 | 92 | 1.0 | 2.0 | 0.00 | 0.00 | 0.20 | 97 | 1014.8 |
| 20260510024327 | 74 | 87 | 1.0 | 2.0 | 0.00 | 0.00 | 0.20 | 97 | 1014.8 |
| 20260510023827 | 74 | 107 | 1.0 | 2.0 | 0.00 | 0.00 | 0.20 | 97 | 1014.7 |
| 20260510023327 | 74 | 109 | 1.0 | 2.0 | 0.00 | 0.00 | 0.20 | 97 | 1014.7 |
| 20260510022827 | 74 | 90 | 0.0 | 1.0 | 0.00 | 0.00 | 0.20 | 97 | 1014.8 |
| 20260510022329 | 74 | 145 | 1.0 | 2.0 | 0.00 | 0.00 | 0.20 | 97 | 1014.9 |
| 20260510021828 | 74 | 107 | 1.0 | 2.0 | 0.00 | 0.00 | 0.20 | 97 | 1014.7 |
| 20260510021327 | 74 | 155 | 0.0 | 2.0 | 0.00 | 0.00 | 0.20 | 97 | 1014.9 |
| 20260510020827 | 74 | 87 | 0.0 | 1.0 | 0.00 | 0.00 | 0.20 | 97 | 1014.8 |
| 20260510020327 | 75 | 211 | 1.0 | 2.0 | 0.00 | 0.00 | 0.20 | 97 | 1014.8 |
| 20260510015828 | 75 | 119 | 1.0 | 2.0 | 0.00 | 0.00 | 0.20 | 97 | 1014.5 |
| 20260510015327 | 75 | 145 | 1.0 | 2.0 | 0.00 | 0.00 | 0.20 | 97 | 1014.5 |
| 20260510014828 | 75 | 170 | 1.0 | 2.0 | 0.00 | 0.00 | 0.20 | 97 | 1014.5 |
| 20260510014327 | 74 | 103 | 0.0 | 2.0 | 0.00 | 0.00 | 0.20 | 97 | 1014.5 |
| 20260510013827 | 74 | 114 | 1.0 | 2.0 | 0.00 | 0.00 | 0.20 | 97 | 1014.3 |
| 20260510013327 | 74 | 349 | 0.0 | 1.0 | 0.00 | 0.00 | 0.20 | 96 | 1014.6 |
| 20260510012827 | 74 | 358 | 0.0 | 0.0 | 0.00 | 0.00 | 0.20 | 96 | 1014.5 |
| 20260510012329 | 74 | 112 | 1.0 | 2.0 | 0.00 | 0.00 | 0.20 | 96 | 1014.4 |
| 20260510011827 | 74 | 163 | 1.0 | 2.0 | 0.00 | 0.00 | 0.20 | 96 | 1014.3 |
| 20260510011327 | 74 | 82 | 1.0 | 2.0 | 0.00 | 0.00 | 0.20 | 96 | 1014.2 |
| 20260510010828 | 74 | 98 | 0.0 | 1.0 | 0.00 | 0.00 | 0.20 | 96 | 1014.3 |
| 20260510010328 | 74 | 110 | 1.0 | 1.0 | 0.00 | 0.00 | 0.20 | 96 | 1014.4 |
| 20260510005827 | 74 | 318 | 1.0 | 2.0 | 0.00 | 0.00 | 0.20 | 96 | 1014.4 |
| 20260510005327 | 74 | 312 | 1.0 | 1.0 | 0.00 | 0.00 | 0.20 | 96 | 1014.2 |
| 20260510004827 | 74 | 307 | 0.0 | 1.0 | 0.00 | 0.00 | 0.20 | 96 | 1014.1 |
| 20260510004327 | 74 | 273 | 0.0 | 1.0 | 0.00 | 0.00 | 0.20 | 95 | 1014.0 |
| 20260510003827 | 75 | 110 | 0.0 | 1.0 | 0.00 | 0.00 | 0.20 | 95 | 1013.9 |
| 20260510003327 | 74 | 304 | 1.0 | 1.0 | 0.00 | 0.00 | 0.20 | 95 | 1014.0 |
| 20260510002827 | 74 | 252 | 1.0 | 1.0 | 0.00 | 0.00 | 0.20 | 95 | 1013.8 |
| 20260510002327 | 75 | 317 | 0.0 | 1.0 | 0.00 | 0.00 | 0.20 | 95 | 1013.8 |
| 20260510001827 | 75 | 125 | 1.0 | 1.0 | 0.00 | 0.00 | 0.20 | 95 | 1013.8 |
| 20260510001329 | 75 | 140 | 0.0 | 1.0 | 0.00 | 0.00 | 0.20 | 95 | 1013.7 |
| 20260510000827 | 75 | 292 | 0.0 | 1.0 | 0.00 | 0.00 | 0.20 | 95 | 1013.7 |
| 20260510000328 | 75 | 132 | 0.0 | 1.0 | 0.00 | 0.00 | 0.20 | 95 | 1013.6 |
| 20260509235827 | 75 | 10 | 0.0 | 2.0 | 0.00 | 0.00 | 0.20 | 95 | 1013.5 |
| 20260509235327 | 75 | 87 | 1.0 | 2.0 | 0.00 | 0.00 | 0.20 | 95 | 1013.5 |
| 20260509234827 | 75 | 69 | 1.0 | 3.0 | 0.00 | 0.00 | 0.20 | 95 | 1013.3 |
| 20260509234327 | 75 | 93 | 2.0 | 4.0 | 0.00 | 0.00 | 0.20 | 95 | 1013.3 |
| 20260509233827 | 76 | 93 | 1.0 | 3.0 | 0.00 | 0.00 | 0.20 | 95 | 1013.3 |
| 20260509233327 | 76 | 80 | 1.0 | 2.0 | 0.00 | 0.00 | 0.20 | 95 | 1013.2 |
| 20260509232827 | 76 | 202 | 1.0 | 2.0 | 0.00 | 0.00 | 0.20 | 95 | 1013.2 |
| 20260509232328 | 76 | 106 | 1.0 | 2.0 | 0.00 | 0.00 | 0.22 | 95 | 1013.2 |
| 20260509231827 | 76 | 155 | 1.0 | 3.0 | 0.00 | 0.00 | 0.22 | 95 | 1013.1 |
| 20260509231327 | 76 | 307 | 1.0 | 2.0 | 0.00 | 0.00 | 0.22 | 95 | 1013.1 |
| 20260509230827 | 76 | 280 | 0.0 | 2.0 | 0.00 | 0.00 | 0.22 | 95 | 1013.0 |
| 20260509230327 | 76 | 90 | 1.0 | 2.0 | 0.00 | 0.00 | 0.22 | 95 | 1013.0 |
| 20260509225829 | 76 | 162 | 1.0 | 2.0 | 0.00 | 0.00 | 0.21 | 95 | 1013.0 |
| 20260509225328 | 76 | 340 | 1.0 | 1.0 | 0.00 | 0.00 | 0.21 | 95 | 1012.9 |
| 20260509224827 | 76 | 149 | 1.0 | 2.0 | 0.00 | 0.00 | 0.20 | 95 | 1012.9 |
| 20260509224327 | 76 | 221 | 2.0 | 3.0 | 0.02 | 0.00 | 0.20 | 95 | 1012.8 |
| 20260509223827 | 76 | 72 | 0.0 | 2.0 | 0.05 | 0.00 | 0.19 | 94 | 1013.0 |
| 20260509223328 | 76 | 75 | 1.0 | 2.0 | 0.32 | 0.00 | 0.19 | 94 | 1013.2 |
| 20260509222827 | 76 | 200 | 3.0 | 6.0 | 0.15 | 0.00 | 0.10 | 93 | 1013.3 |
| 20260509222327 | 76 | 221 | 2.0 | 4.0 | 0.00 | 0.00 | 0.10 | 93 | 1013.3 |
| 20260509221828 | 76 | 227 | 1.0 | 3.0 | 0.00 | 0.00 | 0.10 | 93 | 1013.1 |
| 20260509221327 | 76 | 241 | 1.0 | 2.0 | 0.00 | 0.00 | 0.10 | 93 | 1012.9 |
| 20260509220827 | 76 | 282 | 1.0 | 2.0 | 0.00 | 0.00 | 0.10 | 93 | 1012.9 |
| 20260509220327 | 76 | 196 | 1.0 | 2.0 | 0.00 | 0.00 | 0.10 | 93 | 1012.8 |
| 20260509215828 | 76 | 265 | 1.0 | 2.0 | 0.00 | 0.00 | 0.10 | 92 | 1012.8 |
| 20260509215327 | 76 | 238 | 1.0 | 2.0 | 0.00 | 0.00 | 0.10 | 92 | 1012.8 |
| 20260509214827 | 76 | 217 | 1.0 | 2.0 | 0.00 | 0.00 | 0.09 | 91 | 1012.7 |
| 20260509214327 | 76 | 249 | 1.0 | 2.0 | 0.00 | 0.00 | 0.09 | 91 | 1012.8 |
| 20260509213827 | 76 | 214 | 1.0 | 2.0 | 0.00 | 0.00 | 0.09 | 90 | 1012.7 |
| 20260509213327 | 76 | 159 | 1.0 | 3.0 | 0.03 | 0.00 | 0.09 | 89 | 1012.7 |
| 20260509212827 | 76 | 157 | 1.0 | 2.0 | 0.43 | 0.00 | 0.07 | 88 | 1012.7 |
| 20260509212327 | 76 | 127 | 1.0 | 2.0 | 0.00 | 0.00 | 0.04 | 87 | 1012.8 |
| 20260509211827 | 76 | 314 | 1.0 | 2.0 | 0.00 | 0.00 | 0.04 | 86 | 1012.8 |
| 20260509211327 | 76 | 113 | 0.0 | 2.0 | 0.00 | 0.00 | 0.04 | 85 | 1012.8 |
| 20260509210827 | 76 | 63 | 1.0 | 2.0 | 0.00 | 0.00 | 0.04 | 84 | 1012.6 |
| 20260509210329 | 76 | 74 | 1.0 | 3.0 | 0.00 | 0.00 | 0.04 | 83 | 1012.5 |
| 20260509205827 | 76 | 178 | 0.0 | 1.0 | 0.00 | 0.00 | 0.04 | 83 | 1012.4 |
| 20260509205327 | 76 | 308 | 1.0 | 2.0 | 0.00 | 0.00 | 0.04 | 84 | 1012.4 |
| 20260509204828 | 76 | 308 | 1.0 | 2.0 | 0.00 | 0.00 | 0.04 | 83 | 1012.4 |
| 20260509204327 | 76 | 250 | 1.0 | 2.0 | 0.00 | 0.00 | 0.04 | 85 | 1012.5 |
| 20260509203827 | 76 | 342 | 1.0 | 2.0 | 0.00 | 0.00 | 0.04 | 86 | 1012.5 |
| 20260509203327 | 76 | 331 | 1.0 | 1.0 | 0.00 | 0.00 | 0.08 | 85 | 1012.5 |
| 20260509202829 | 77 | 295 | 1.0 | 3.0 | 0.00 | 0.00 | 0.08 | 84 | 1012.6 |
| 20260509202327 | 78 | 270 | 1.0 | 2.0 | 0.29 | 0.00 | 0.08 | 82 | 1012.6 |
| 20260509201830 | 78 | 183 | 2.0 | 4.0 | 0.12 | 0.00 | 0.00 | 78 | 1012.7 |
| 20260509201328 | 80 | 241 | 3.0 | 5.0 | 0.00 | 0.00 | 0.00 | 76 | 1012.8 |
| 20260509200828 | 81 | 295 | 3.0 | 11.0 | 0.00 | 0.00 | 0.00 | 80 | 1012.4 |
| 20260509200327 | 81 | 255 | 1.0 | 2.0 | 0.00 | 0.00 | 0.00 | 81 | 1012.4 |
| 20260509195827 | 82 | 72 | 1.0 | 2.0 | 0.00 | 0.00 | 0.00 | 80 | 1012.2 |
| 20260509195327 | 82 | 117 | 1.0 | 3.0 | 0.00 | 0.00 | 0.00 | 80 | 1012.0 |
| 20260509194827 | 82 | 102 | 2.0 | 2.0 | 0.00 | 0.00 | 0.00 | 79 | 1011.9 |
| 20260509194327 | 82 | 89 | 2.0 | 4.0 | 0.00 | 0.00 | 0.00 | 79 | 1012.0 |
| 20260509193827 | 82 | 95 | 2.0 | 3.0 | 0.00 | 0.00 | 0.00 | 78 | 1012.0 |
| 20260509193327 | 82 | 109 | 1.0 | 2.0 | 0.00 | 0.00 | 0.00 | 78 | 1012.2 |
| 20260509192828 | 82 | 102 | 1.0 | 2.0 | 0.00 | 0.00 | 0.00 | 79 | 1012.1 |
| 20260509192328 | 82 | 111 | 1.0 | 2.0 | 0.00 | 0.00 | 0.00 | 78 | 1012.0 |
| 20260509191828 | 82 | 86 | 2.0 | 3.0 | 0.00 | 0.00 | 0.00 | 77 | 1012.3 |
| 20260509191327 | 82 | 96 | 1.0 | 2.0 | 0.00 | 0.00 | 0.00 | 78 | 1012.1 |
| 20260509190827 | 82 | 102 | 2.0 | 3.0 | 0.00 | 0.00 | 0.00 | 77 | 1012.2 |
| 20260509185908 | 83 | 136 | 0.0 | 2.0 | 0.00 | 0.00 | 0.00 | 77 | 1012.5 |
| 20260509185327 | 83 | 99 | 1.0 | 2.0 | 0.00 | 0.00 | 0.00 | 75 | 1012.3 |
| 20260509184827 | 83 | 96 | 2.0 | 3.0 | 0.00 | 0.00 | 0.00 | 74 | 1012.5 |
| 20260509184328 | 83 | 102 | 1.0 | 2.0 | 0.00 | 0.00 | 0.00 | 75 | 1012.4 |
| 20260509183827 | 83 | 103 | 2.0 | 3.0 | 0.00 | 0.00 | 0.00 | 75 | 1012.5 |
| 20260509183332 | 84 | 92 | 2.0 | 3.0 | 0.00 | 0.00 | 0.00 | 74 | 1012.6 |
| 20260509182827 | 85 | 96 | 2.0 | 4.0 | 0.00 | 0.00 | 0.00 | 73 | 1012.6 |